Wind_Speed
31 32 33 33 32 32 33 34 36 40 41 42 37 34 34 35 34 27 29 29 29 32 29 32 31 28 30 34 33 37 36 42 44 39 37 34 29 27 21 15 12 9 7
33 33 33 33 33 34 34 37 39 41 38 37 36 35 34 32 29 26 27 28 29 30 29 30 26 29 32 34 35 40 39 39 24 45 38 33 28 21 17 15 14 11 10
35 35 35 35 35 34 38 39 40 41 39 40 36 32 33 29 25 22 24 25 26 26 26 26 27 35 31 29 34 39 38 31 41 45 41 32 27 21 18 14 12 12 13
36 37 38 37 35 37 39 40 39 41 41 40 35 33 36 28 18 16 20 25 25 25 26 28 31 34 29 35 37 34 37 39 41 43 39 32 25 20 13 14 14 11 11
36 38 39 39 37 38 42 43 39 43 37 36 36 34 31 19 11 17 12 12 24 26 25 33 36 27 32 41 38 30 34 35 42 38 35 28 23 18 14 12 10 11 11
39 38 39 37 38 39 37 38 43 42 39 35 35 33 29 13 12 11 3 21 34 40 41 39 35 36 36 31 27 25 23 27 37 36 28 23 20 16 10 9 10 10 15
39 40 33 37 40 43 45 50 51 41 31 33 35 30 21 14 10 7 10 35 37 41 41 35 40 35 33 32 32 30 28 31 30 27 23 19 19 14 12 14 11 11 14
39 38 43 36 40 42 46 43 36 32 33 38 30 17 15 8 17 19 29 38 41 42 42 42 39 37 40 40 39 40 39 32 27 23 20 19 16 15 11 8 8 15 18
39 37 35 36 37 36 36 36 31 30 35 25 9 25 30 39 46 44 44 43 46 48 41 44 44 43 41 40 42 43 37 33 25 20 20 19 17 16 12 9 13 16 21
36 37 35 32 31 31 30 27 26 30 17 16 28 30 36 44 48 49 52 52 53 54 52 50 43 43 40 34 35 37 36 31 26 24 21 19 16 17 14 9 8 16 18
35 33 30 26 25 25 25 22 26 10 20 21 29 36 40 47 48 44 43 56 59 56 50 45 42 37 34 34 33 33 34 31 26 24 22 19 17 15 14 13 10 9 15
30 27 23 21 22 20 16 21 14 17 24 27 33 40 44 37 47 50 51 52 52 53 49 44 40 38 37 35 34 32 30 27 25 26 27 27 25 22 19 17 18 20 19
22 21 17 18 17 10 15 14 17 23 28 38 39 43 43 45 47 50 48 49 49 51 48 46 43 41 39 37 32 29 26 27 29 31 32 31 29 28 25 23 22 22 22
17 14 12 14 8 10 12 15 19 29 33 38 36 47 46 46 48 48 49 49 49 51 49 45 43 41 38 35 31 29 29 29 31 32 31 28 26 25 25 24 26 24 25
8 8 9 4 9 12 12 13 22 30 30 27 40 44 48 47 46 45 46 48 49 48 46 43 41 39 38 35 33 32 31 30 30 28 28 26 24 22 21 17 20 24 28
7 5 6 7 12 15 15 18 17 19 23 37 40 42 44 44 43 43 45 44 43 42 42 43 42 39 38 36 35 33 30 28 27 27 26 26 25 23 21 20 21 22 23
4 5 8 12 11 16 17 21 29 31 32 33 36 38 37 39 40 42 42 41 39 38 41 41 40 38 37 34 33 32 29 27 26 27 27 25 24 24 23 23 21 20 19
7 8 10 9 11 19 24 28 29 35 36 36 34 34 35 39 40 39 38 38 39 37 38 38 38 36 34 34 32 31 30 28 27 26 25 24 23 24 24 23 22 23 23
7 8 9 7 14 22 28 30 30 34 38 40 39 36 38 39 37 36 34 35 37 37 35 36 35 33 32 31 31 29 29 28 28 28 27 27 26 27 27 25 25 25 25
7 6 9 14 20 25 28 32 34 37 41 40 39 40 38 35 35 34 32 32 34 34 34 34 32 31 30 29 29 29 29 28 27 28 27 27 27 27 28 28 27 26 25
13 15 21 23 25 28 32 35 38 41 40 39 38 35 34 33 34 32 32 31 31 31 32 31 30 29 28 28 28 27 27 27 26 25 25 25 24 25 24 25 24 24 23
21 24 25 27 29 31 34 36 41 40 39 39 36 33 32 31 32 32 31 30 30 29 29 29 28 27 26 26 26 25 25 25 24 23 24 24 23 23 22 22 22 21 21
22 26 27 29 32 34 36 39 40 38 37 36 35 34 32 31 31 31 30 29 29 28 27 26 26 27 26 26 24 22 23 24 22 20 21 22 21 21 21 21 20 20 20
24 29 30 32 34 35 39 40 37 35 34 35 34 34 32 31 31 30 30 29 28 28 26 24 24 25 25 25 24 23 22 22 20 19 18 19 20 20 20 20 20 19 20
24 28 31 34 34 37 38 36 34 33 34 34 34 33 32 31 30 29 29 28 28 27 25 24 24 24 23 23 23 22 21 20 19 18 18 18 19 19 19 20 20 21 21
21 26 31 34 35 36 35 33 33 33 35 34 34 32 31 30 29 29 28 27 27 26 25 24 24 24 24 23 22 21 21 19 19 18 18 18 20 21 21 22 23 24 24
Wind_Direction
321 317 318 315 311 309 308 305 303 301 306 313 313 306 293 294 290 279 270 267 257 252 249 245 239 224 220 211 200 194 188 181 151 142 148 149 154 154 147 141 126 113 103
322 319 315 313 311 311 309 306 309 311 305 308 307 300 296 297 284 275 263 266 258 250 246 236 228 216 206 184 184 185 184 172 172 154 152 151 151 147 137 130 118 104 88
321 317 314 311 311 309 313 312 311 309 307 312 311 302 293 304 295 271 274 258 254 244 237 227 210 195 181 183 184 181 173 170 170 165 153 149 142 138 138 126 111 99 92
318 316 310 309 308 309 313 313 310 307 311 310 310 299 301 303 295 275 272 248 237 227 213 205 197 195 197 185 167 160 164 164 168 163 151 144 139 131 122 121 112 106 92
315 312 308 307 305 307 312 312 309 316 311 311 310 307 312 306 306 298 281 235 218 200 201 185 181 188 192 179 164 152 162 160 161 156 151 141 137 132 130 137 129 112 88
313 309 306 308 309 310 309 308 314 309 311 314 312 314 310 276 310 312 201 196 166 160 157 156 164 170 159 135 139 154 154 147 162 154 142 137 130 144 143 127 123 106 93
309 307 304 305 304 301 303 306 307 313 317 324 319 311 303 268 289 227 195 162 151 151 149 142 136 132 144 144 135 137 145 151 145 141 140 136 139 135 139 142 134 118 104
308 299 304 309 309 308 308 308 318 327 329 327 318 316 286 240 178 157 149 139 133 132 136 135 136 138 134 132 131 126 126 129 136 140 141 141 145 153 161 154 155 132 111
308 307 310 312 309 310 313 314 324 331 337 349 34 106 117 125 149 144 139 138 133 125 128 132 131 130 136 140 140 136 132 128 134 134 130 124 116 103 100 121 98 133 119
314 315 313 310 309 311 314 318 330 340 16 62 112 111 122 112 135 133 128 125 123 126 125 127 135 138 139 137 136 136 131 131 136 130 125 127 130 128 130 133 109 106 123
315 312 315 317 314 316 317 328 343 53 82 95 106 100 108 114 117 123 130 126 126 124 125 126 128 129 131 129 127 126 121 125 120 117 113 110 113 124 139 143 135 114 122
314 313 317 322 318 320 330 350 38 119 112 113 111 102 105 113 123 122 128 125 126 125 122 122 126 127 124 121 115 113 118 119 116 112 108 104 103 103 108 111 114 116 114
317 316 320 322 322 346 349 42 107 122 107 106 113 107 105 109 111 124 124 123 121 116 117 119 121 119 116 111 113 116 117 114 113 109 104 99 95 91 93 100 104 108 110
314 317 328 325 8 20 32 108 125 122 120 120 123 116 116 120 122 123 121 119 119 117 121 120 118 116 114 113 112 109 110 111 109 106 103 99 94 88 84 85 89 92 94
329 337 337 42 35 62 96 124 131 130 129 128 130 129 126 126 126 127 126 124 124 125 126 122 118 115 112 111 110 108 108 109 107 108 110 111 110 109 103 97 91 93 85
357 349 87 64 92 102 107 121 125 128 131 140 134 131 126 128 131 128 125 124 125 127 123 120 117 117 116 113 111 111 108 107 108 108 109 110 110 111 111 108 105 101 98
37 68 94 107 100 116 122 123 112 109 121 128 131 131 129 126 128 127 127 127 127 130 122 120 120 120 117 116 114 112 110 110 110 109 109 108 109 108 106 103 104 111 109
80 97 117 114 124 129 127 124 126 120 118 114 127 125 125 129 131 131 132 130 130 125 123 124 123 121 121 119 117 114 114 114 112 112 113 114 113 112 110 105 99 97 97
108 123 121 134 140 137 133 131 132 132 127 124 125 127 133 135 133 132 136 131 129 127 127 123 122 124 123 122 119 117 115 114 113 110 107 105 106 105 102 99 98 96 95
93 145 162 161 148 143 139 137 137 134 132 131 132 133 139 138 134 135 136 133 130 128 128 126 126 125 124 124 121 119 117 115 113 110 108 106 103 101 98 96 93 93 90
142 159 163 152 148 146 142 140 142 138 137 137 134 138 141 138 136 137 136 135 131 129 128 126 125 126 128 125 122 120 117 115 113 110 108 106 104 101 98 97 94 91 88
146 150 153 150 147 146 142 145 144 140 139 139 138 143 143 138 139 138 136 134 131 130 129 127 127 128 126 122 120 119 117 114 113 111 110 108 105 101 99 96 95 93 89
139 148 149 148 146 145 146 147 144 143 144 144 143 143 144 141 140 137 135 135 134 132 130 130 130 128 125 121 118 115 113 112 111 109 109 108 104 99 96 95 92 91 89
136 143 148 149 148 148 147 146 144 145 146 145 145 144 144 143 141 138 136 137 136 133 132 132 130 128 125 122 119 117 114 112 110 109 106 105 103 101 99 96 92 88 85
142 148 150 151 150 148 146 146 146 147 149 148 146 146 146 144 142 138 138 139 137 134 134 134 131 127 123 120 119 116 113 111 110 108 108 107 104 102 99 95 91 89 86
142 144 146 147 145 147 149 149 150 153 151 149 149 148 147 145 143 142 142 141 137 135 135 135 132 129 125 123 119 116 113 112 111 109 108 106 104 102 100 98 96 93 90
Height
1464 1458 1453 1447 1442 1438 1433 1428 1422 1416 1411 1405 1400 1396 1393 1389 1386 1384 1384 1384 1385 1386 1389 1391 1395 1400 1403 1408 1414 1419 1425 1431 1433 1446 1453 1457 1461 1464 1467 1470 1473 1474 1475
1460 1454 1448 1442 1437 1432 1427 1421 1414 1408 1404 1400 1395 1388 1383 1380 1377 1375 1375 1375 1376 1377 1380 1386 1389 1392 1398 1404 1409 1415 1423 1429 1431 1441 1453 1456 1460 1463 1467 1470 1473 1475 1476
1455 1448 1442 1436 1431 1425 1419 1413 1407 1401 1396 1390 1385 1377 1375 1370 1367 1366 1366 1366 1366 1369 1373 1378 1384 1388 1395 1399 1406 1413 1420 1423 1435 1440 1449 1456 1459 1465 1468 1472 1474 1475 1477
1450 1443 1436 1430 1425 1419 1413 1407 1400 1394 1388 1382 1376 1371 1366 1362 1359 1359 1358 1358 1360 1364 1368 1374 1380 1385 1389 1397 1405 1412 1413 1426 1436 1443 1448 1454 1461 1466 1470 1472 1476 1477 1478
1444 1437 1430 1424 1419 1414 1407 1400 1393 1386 1383 1374 1367 1362 1355 1354 1352 1352 1351 1351 1355 1360 1367 1372 1377 1384 1390 1396 1404 1411 1420 1425 1434 1442 1450 1457 1463 1466 1469 1474 1476 1478 1479
1438 1431 1423 1419 1413 1407 1400 1393 1386 1379 1372 1366 1358 1352 1349 1348 1347 1348 1350 1351 1349 1356 1364 1371 1379 1385 1394 1396 1407 1416 1422 1427 1437 1445 1453 1459 1464 1469 1472 1476 1477 1477 1477
1431 1424 1417 1412 1407 1398 1392 1386 1379 1371 1364 1357 1350 1344 1340 1341 1343 1345 1350 1346 1348 1359 1365 1375 1377 1394 1400 1406 1415 1424 1430 1437 1445 1451 1455 1462 1466 1470 1473 1476 1476 1478 1480
1424 1417 1412 1406 1398 1391 1386 1378 1371 1366 1357 1350 1343 1335 1327 1324 1337 1346 1346 1345 1357 1365 1373 1382 1388 1399 1405 1410 1417 1425 1434 1443 1450 1456 1459 1464 1468 1472 1475 1477 1479 1480 1484
1416 1411 1405 1400 1392 1386 1382 1373 1370 1365 1354 1345 1335 1334 1331 1331 1337 1346 1348 1354 1361 1372 1384 1391 1395 1404 1412 1415 1419 1428 1439 1449 1456 1460 1464 1468 1472 1474 1475 1477 1480 1483 1487
1410 1406 1399 1394 1388 1383 1379 1371 1370 1363 1358 1352 1343 1345 1343 1344 1344 1347 1354 1360 1367 1380 1391 1399 1405 1410 1419 1425 1429 1436 1442 1451 1457 1462 1465 1468 1472 1474 1476 1480 1483 1485 1488
1405 1400 1395 1389 1384 1382 1376 1372 1369 1364 1362 1358 1351 1355 1356 1357 1358 1364 1367 1371 1379 1388 1399 1409 1418 1424 1430 1435 1440 1445 1448 1456 1462 1465 1469 1471 1475 1478 1481 1484 1486 1488 1490
1399 1394 1391 1388 1382 1379 1376 1373 1370 1369 1367 1365 1364 1367 1368 1371 1375 1379 1382 1388 1394 1398 1408 1418 1427 1433 1438 1444 1448 1453 1457 1462 1466 1469 1473 1477 1480 1482 1484 1487 1489 1491 1493
1394 1391 1389 1386 1382 1379 1376 1376 1375 1375 1374 1374 1373 1376 1381 1384 1387 1392 1397 1402 1408 1409 1418 1427 1435 1441 1446 1451 1456 1461 1465 1468 1472 1475 1479 1483 1487 1489 1490 1491 1493 1495 1496
1391 1390 1389 1385 1384 1381 1379 1380 1380 1381 1381 1381 1382 1387 1390 1395 1399 1405 1409 1413 1418 1421 1429 1437 1442 1448 1453 1458 1463 1469 1473 1476 1479 1482 1486 1490 1493 1495 1497 1499 1499 1500 1500
1391 1389 1389 1386 1386 1385 1384 1386 1387 1388 1389 1390 1393 1395 1399 1405 1412 1416 1418 1422 1426 1431 1435 1443 1449 1455 1461 1467 1472 1476 1480 1484 1486 1489 1492 1496 1499 1501 1502 1504 1505 1507 1507
1392 1392 1392 1390 1390 1390 1390 1393 1395 1397 1398 1400 1402 1406 1412 1416 1421 1426 1429 1434 1438 1443 1446 1451 1458 1464 1470 1475 1479 1484 1488 1491 1494 1496 1499 1501 1503 1505 1507 1509 1510 1511 1512
1396 1395 1395 1395 1396 1396 1396 1399 1401 1406 1408 1411 1415 1419 1424 1427 1433 1437 1440 1444 1450 1454 1455 1462 1468 1474 1478 1483 1487 1491 1494 1498 1501 1503 1505 1507 1508 1509 1511 1513 1514 1515 1515
1401 1401 1400 1400 1401 1402 1404 1405 1409 1413 1416 1423 1429 1432 1436 1440 1443 1447 1450 1454 1459 1465 1467 1472 1476 1482 1486 1490 1494 1497 1501 1504 1507 1508 1510 1511 1513 1514 1516 1517 1518 1518 1519
1405 1406 1406 1406 1406 1408 1410 1414 1417 1420 1424 1430 1436 1442 1447 1449 1452 1457 1462 1464 1467 1472 1477 1481 1486 1490 1494 1497 1501 1504 1507 1510 1512 1513 1515 1517 1519 1519 1520 1521 1523 1524 1524
1409 1410 1411 1411 1413 1414 1416 1421 1424 1428 1433 1438 1443 1448 1452 1457 1461 1466 1471 1475 1478 1481 1485 1489 1493 1497 1501 1505 1507 1510 1512 1515 1518 1520 1521 1523 1524 1525 1526 1527 1528 1529 1529
1413 1414 1414 1416 1418 1421 1424 1427 1431 1435 1440 1446 1451 1456 1461 1464 1468 1474 1478 1483 1486 1490 1494 1497 1501 1505 1509 1511 1513 1516 1518 1521 1524 1526 1527 1529 1530 1531 1532 1533 1533 1534 1534
1415 1417 1419 1421 1424 1427 1430 1434 1438 1443 1448 1453 1457 1463 1469 1473 1477 1481 1485 1490 1494 1498 1502 1505 1508 1512 1515 1518 1520 1522 1524 1527 1530 1532 1533 1534 1536 1536 1537 1538 1538 1539 1539
1420 1421 1424 1427 1430 1433 1437 1441 1446 1451 1456 1460 1464 1470 1476 1480 1484 1488 1492 1497 1501 1505 1509 1513 1515 1518 1521 1524 1527 1529 1531 1533 1536 1538 1539 1540 1541 1541 1542 1543 1544 1544 1544
1426 1428 1430 1432 1436 1439 1444 1449 1455 1459 1463 1467 1472 1477 1482 1487 1491 1495 1499 1504 1508 1512 1516 1519 1523 1525 1527 1530 1532 1535 1537 1539 1541 1543 1545 1545 1545 1546 1547 1548 1548 1548 1548
1431 1434 1437 1440 1443 1448 1452 1457 1462 1466 1470 1474 1478 1484 1489 1493 1497 1502 1506 1510 1514 1518 1522 1526 1529 1531 1534 1536 1538 1540 1543 1545 1547 1548 1550 1550 1551 1551 1552 1552 1553 1553 1553
1438 1440 1444 1448 1452 1456 1459 1463 1468 1472 1476 1480 1485 1490 1495 1499 1504 1508 1512 1516 1520 1524 1528 1531 1534 1537 1539 1541 1544 1546 1548 1550 1552 1554 1555 1556 1556 1557 1557 1558 1558 1559 1559